Licenciado Gustavo Díaz Ordaz International Airport
MMPR : now visible

Airfield :











YOU CAN JOIN US ON...

 
LOGIN :

Register | Disclaimer

   EN    FR    IT 

 









Legend :    VFR   Marginal VFR   IFR   Intensive IFR   Very Intensive IFR
Visi :
Ceiling :
>= 8 km
>= 3000ft
5 to 8 km
1000 to 3000 ft
1500m to 5 km
500 to 1000 ft
800 to 1500m
200 to 500 ft
< 800m
< 200 ft
Symbols :   Thunderstorms  Fog  Heavy snow  Heavy precipitations  Wind > 20 kt







- Airport Elevation : 23 ft
- IATA code : PVR


MMPR - Licenciado Gustavo Díaz Ordaz International

CURRENT METAR :
  • 261350Z 01003KT 10SM OVC020 25/22 A2993 RMK 8/5// LWR CLDS/ALQDS BINOVC

EXPIRED METARs :
  • 261247Z 00000KT 10SM OVC020 24/24 A2991 RMK 8/5// LWR CLDS/ALQS
  • 261147Z 36003KT 12SM BKN025 24/23 A2988 RMK SLP116 57003 921 8/500 CS

TAF TAF MMPR
Valid from the 26 at 12:00 until the 27 at 18:00 UTC


261033Z 2612/2718 04005KT P6SM SCT020 TX29/2620Z TN23/2612Z
TEMPO 2612/2616 BKN020
FM261800 23012KT P6SM SCT020 SCT250
FM270600 34005KT P6SM SCT025
TEMPO 2708/2712 BKN020
FM271700 23012KT P6SM SCT025 BKN250
MMFR FIR / North America



MET'MAP, your aeronautical weather chart ! - Copyright ORBIFLY December 2007 - Disclaimer

ORBIFLY MET'MAP TEAM :

Programming & Development : Alexandra Zaïnal
Concept & Development : Baudouin d'Aumeries
Co-Development & Prog : Marc-Olivier Méhu
Technical & hardware support : Manuel Goepfert

Contact : metmap@orbifly.com




SOURCES & CREDITS :

   NOAA       Earth
Advisory